Temperature
11 10 10 10 10 10 10 10 10 10 10 10 10 10 10 10 10 10 10 10 10 10 10 10 10 10 10 10 10 10 10 9 9 9 8 9 9 8 9 8 8 8 8
10 10 10 10 10 10 10 10 10 10 10 10 10 10 10 10 10 10 10 10 10 10 10 10 10 9 9 9 9 9 9 9 9 8 8 8 7 8 8 8 8 8 8
10 10 10 10 10 10 10 10 10 10 10 10 10 10 10 10 10 10 9 9 9 9 9 9 9 9 9 9 9 9 9 9 9 8 8 8 8 7 7 8 8 7 7
10 10 10 10 10 10 10 10 10 10 10 10 10 10 10 10 10 10 9 9 9 9 9 9 9 9 9 9 8 8 8 8 8 8 8 8 8 7 7 7 7 7 7
10 10 10 10 10 10 10 10 10 10 10 10 10 9 9 9 9 9 9 9 9 9 9 8 8 8 8 8 8 8 8 8 8 7 7 7 7 7 7 6 6 6 7
10 10 10 10 10 10 10 10 10 10 10 10 9 9 9 9 9 9 9 9 8 8 8 8 8 8 8 8 8 8 8 7 7 7 7 7 7 7 6 6 6 6 6
9 9 9 9 9 10 10 10 10 10 10 9 9 9 9 9 9 9 9 8 8 8 8 8 8 8 7 7 7 7 7 7 7 7 7 6 6 6 6 5 5 5 5
9 9 9 9 9 10 10 10 9 9 9 9 9 9 9 9 9 8 8 8 8 8 8 8 7 7 7 7 7 7 7 6 6 6 6 6 6 6 5 5 4 4 4
8 8 9 9 9 9 10 9 9 9 9 9 9 9 9 8 8 8 8 8 8 7 7 7 7 7 7 6 6 6 6 6 6 6 6 5 5 5 5 5 4 3 3
8 8 8 8 9 9 9 9 9 9 9 9 9 9 8 8 8 8 8 8 7 7 7 7 7 6 6 6 6 6 6 6 5 5 5 5 5 5 4 4 4 4 3
7 7 8 8 8 8 9 9 9 9 9 8 8 8 8 8 8 7 7 7 7 7 7 6 6 6 6 6 5 5 5 5 5 5 4 4 4 4 4 4 4 3 3
7 7 7 8 8 8 8 8 8 8 8 8 8 8 7 7 7 7 7 7 7 6 6 6 6 6 6 5 5 5 5 5 4 4 4 4 4 4 3 3 3 3 2
7 7 7 7 7 8 8 8 8 8 8 7 7 7 7 7 7 7 7 6 6 6 6 6 5 5 5 5 5 5 4 4 4 4 4 4 3 3 3 3 3 2 2
6 6 6 6 7 7 7 7 8 7 7 7 7 7 7 7 6 6 6 6 6 6 5 5 5 5 5 5 4 4 4 4 4 4 3 3 3 3 3 2 2 2 2
6 6 6 6 7 7 7 7 7 7 7 7 7 7 7 6 6 6 6 6 5 5 5 5 5 5 4 4 4 4 4 3 3 3 3 3 3 2 2 2 2 2 1
6 6 6 6 7 7 7 7 7 7 7 7 6 6 6 6 6 6 5 5 5 5 5 5 5 4 4 4 4 3 3 3 3 3 3 2 2 2 2 2 1 1 1
5 6 6 6 6 6 6 6 6 6 6 6 6 6 6 6 5 5 5 5 5 4 4 4 4 4 4 4 3 3 3 3 2 2 2 2 2 2 2 1 1 1 1
5 5 6 6 6 6 6 6 6 6 6 5 5 5 5 5 5 5 5 5 4 4 4 4 4 3 3 3 3 3 2 2 2 2 2 2 2 1 1 1 1 0 0
5 5 5 6 6 6 6 5 5 5 5 5 5 5 5 5 5 4 4 4 4 3 3 3 3 3 3 3 2 2 2 2 2 2 2 1 1 1 1 0 -0 -0 -0
5 5 5 5 5 5 5 5 5 5 5 5 5 4 4 4 4 4 3 3 3 3 3 3 3 2 2 2 2 2 2 2 1 1 1 1 1 0 0 -0 -1 -1 -1
4 4 4 5 5 4 4 4 4 4 4 4 4 4 3 3 3 3 3 3 2 2 2 2 2 2 2 2 2 1 1 1 1 1 1 0 0 -0 -1 -1 -1 -2 -2
4 4 4 4 4 4 4 4 4 4 4 3 3 3 3 3 2 2 2 2 2 2 2 1 2 1 1 1 1 1 1 1 0 0 0 -0 -0 -1 -1 -1 -2 -2 -2
3 3 3 3 3 3 3 3 3 3 3 3 3 3 2 2 2 2 1 1 1 1 1 1 1 1 1 1 1 1 0 0 -0 -0 -0 -1 -1 -1 -2 -2 -2 -2 -3
3 3 3 3 3 3 2 2 2 2 2 2 2 2 2 1 1 1 1 1 1 1 1 0 0 0 0 0 0 0 -0 -0 -1 -1 -1 -1 -2 -2 -2 -3 -3 -3 -3
2 2 2 2 2 2 2 2 2 2 2 1 1 1 1 1 1 0 0 0 0 0 -0 -0 -0 -0 -0 -0 -0 -0 -1 -1 -1 -1 -2 -2 -3 -3 -3 -3 -3 -4 -4
1 1 1 1 1 1 1 1 1 1 1 1 1 0 0 0 -0 -0 -0 -0 -0 -0 -1 -1 -1 -1 -1 -1 -1 -1 -1 -2 -2 -2 -3 -3 -3 -3 -4 -4 -4 -4 -4
Wind_Speed
6 4 5 5 4 4 4 5 6 5 5 5 5 4 4 4 4 4 5 6 6 6 6 5 5 4 4 4 5 5 5 3 3 2 2 2 2 2 2 1 2 2 2
5 4 4 5 5 5 5 5 6 6 6 5 5 3 4 3 3 4 5 5 6 6 5 6 5 5 4 4 4 4 3 3 2 1 2 2 3 2 1 1 1 1 1
6 5 5 5 5 6 6 5 6 6 6 6 4 4 3 3 4 4 4 5 6 6 5 6 5 5 4 4 4 4 4 3 2 1 2 2 2 2 2 2 1 1 1
6 6 6 6 6 7 6 6 7 6 6 7 7 8 6 6 6 5 5 6 6 6 6 6 6 5 5 5 4 4 3 4 3 2 1 1 0 1 2 3 2 2 2
6 6 6 6 6 6 6 6 7 7 7 7 8 8 6 5 5 5 6 6 5 6 6 5 5 5 4 5 5 4 4 3 3 3 2 2 1 2 2 2 2 2 2
5 5 4 3 3 4 4 5 7 7 7 8 8 8 8 7 7 7 7 6 5 5 6 6 5 5 4 5 5 4 5 4 4 3 2 2 2 2 2 3 3 3 2
4 5 5 4 4 4 4 5 7 7 7 8 8 8 8 8 8 8 7 7 5 5 6 6 5 5 5 5 5 5 5 5 4 4 3 3 2 2 2 3 3 3 3
3 4 4 5 5 5 4 5 6 7 8 8 8 7 8 6 6 7 6 6 5 5 6 6 6 6 6 5 5 4 4 4 4 4 4 3 3 3 3 3 3 3 4
4 3 3 4 4 4 4 5 6 7 7 8 8 7 8 7 6 6 6 5 5 5 6 6 6 6 6 6 5 4 5 4 4 4 4 3 3 3 3 3 4 4 4
5 4 2 2 3 3 3 4 6 7 7 7 7 6 7 7 7 6 7 6 6 6 7 7 6 6 6 6 5 4 4 5 4 3 4 4 3 3 3 4 4 5 5
5 4 3 2 1 1 2 4 4 5 6 6 7 7 7 7 7 6 7 7 7 7 7 7 7 7 6 6 6 5 6 5 5 5 5 5 4 4 4 4 4 5 5
4 3 2 2 1 1 2 3 4 5 5 6 6 7 7 7 7 7 7 7 7 7 7 7 7 7 6 7 7 7 6 6 6 6 5 5 4 5 4 4 5 5 5
4 3 2 2 1 1 1 2 3 4 4 5 6 7 8 8 8 7 7 7 7 7 7 7 7 7 7 7 6 6 6 6 6 6 6 6 6 6 5 5 5 5 5
4 3 3 2 1 1 1 2 2 3 4 5 6 7 8 8 8 7 7 7 7 7 7 7 7 7 7 6 6 6 6 6 6 6 6 6 6 6 6 5 6 5 6
5 4 4 3 2 2 2 2 2 2 3 5 6 6 6 6 6 7 7 7 7 7 7 7 7 6 6 6 7 7 6 6 6 6 6 6 6 7 6 5 6 6 6
6 5 5 4 3 3 2 2 2 2 3 4 5 4 5 5 6 7 7 7 7 7 7 7 7 7 6 7 9 7 6 6 7 7 6 6 7 8 9 9 9 9 8
7 6 6 5 5 4 3 3 3 3 3 4 4 4 5 6 6 6 7 7 7 7 7 7 7 7 7 9 10 10 7 7 7 7 6 5 6 7 7 9 11 11 12
7 7 6 6 5 4 3 3 2 2 3 3 4 4 5 5 5 6 7 7 6 6 6 6 7 7 7 9 10 10 9 7 7 7 8 7 7 7 7 8 8 9 10
8 7 7 6 5 4 3 2 2 2 3 3 3 4 4 5 6 6 6 6 6 6 6 6 7 7 7 9 10 10 7 7 8 8 8 8 8 8 9 8 9 10 9
7 6 6 5 4 3 2 2 3 3 3 3 3 3 4 5 6 6 5 5 5 5 5 6 7 7 7 8 10 11 7 7 7 7 8 10 10 9 9 9 9 10 9
7 6 5 5 4 3 2 3 3 4 4 3 3 3 4 4 4 4 4 4 5 5 5 6 6 7 8 8 10 11 8 7 7 6 6 6 9 10 11 10 9 10 9
7 6 5 5 4 3 3 4 4 4 3 3 3 4 4 3 3 4 4 5 5 5 5 6 6 5 6 7 9 12 12 9 8 7 6 6 9 10 11 10 10 11 10
7 6 6 5 5 4 4 4 5 3 3 3 3 3 3 3 4 4 5 4 5 5 5 5 5 5 5 5 9 11 12 11 8 7 7 8 9 10 9 10 11 9 7
7 6 5 5 5 5 5 5 4 3 3 3 3 3 3 3 3 3 4 4 5 5 5 5 5 5 5 5 5 5 6 8 7 6 6 8 9 8 8 8 8 7 7
6 5 5 5 6 5 5 4 3 3 3 3 3 3 3 3 3 3 4 5 5 5 5 5 5 5 6 6 6 6 5 5 6 5 4 5 5 6 6 6 6 6 6
6 6 6 6 6 5 5 4 3 3 3 3 3 3 3 2 2 2 3 4 6 6 8 8 7 6 8 8 8 9 9 8 8 6 6 6 6 6 6 6 6 6 6
Wind_Direction
247 226 207 199 187 183 186 182 180 181 179 172 171 170 176 168 167 162 162 167 166 165 166 156 156 162 163 160 160 151 139 127 134 143 139 131 124 128 126 122 117 103 84
242 221 202 192 192 190 190 192 191 188 187 185 181 178 164 166 163 157 165 169 168 166 173 169 164 163 158 153 156 160 153 139 155 180 182 176 175 163 154 155 148 140 123
236 222 206 198 200 199 196 196 199 196 190 179 164 143 135 145 165 172 175 178 177 170 170 168 163 162 165 160 163 172 172 160 154 190 233 215 196 163 170 178 183 177 180
235 228 217 208 205 205 202 199 195 193 188 179 177 173 181 186 189 178 173 170 177 174 167 167 165 165 162 163 168 169 168 170 171 169 245 295 334 213 193 183 185 203 236
244 235 227 221 214 206 198 196 193 190 186 186 186 185 191 187 170 166 165 168 171 173 169 167 165 166 166 166 166 165 165 176 184 183 187 195 211 233 240 229 219 229 233
253 245 233 220 212 208 197 193 191 191 188 189 190 192 190 180 169 171 172 174 171 169 170 169 171 166 166 169 166 163 166 170 175 182 196 208 219 214 230 249 254 262 254
263 251 235 221 213 207 203 199 195 193 191 191 192 195 193 188 185 182 182 176 175 176 175 170 172 170 168 167 163 162 169 175 179 190 198 211 230 237 242 248 259 265 268
292 268 250 236 226 212 205 203 204 199 195 194 194 195 195 195 192 186 182 182 181 179 170 169 171 169 166 165 166 168 172 176 184 194 200 207 216 218 228 236 244 261 260
321 298 270 250 239 223 212 210 207 202 199 197 194 197 194 193 189 183 182 182 178 168 168 170 171 169 169 171 171 177 178 179 188 193 199 209 209 217 227 233 232 241 261
337 321 292 257 243 230 214 209 207 203 198 196 196 196 194 191 188 184 184 181 176 171 171 174 176 173 174 176 177 182 184 185 191 197 203 210 214 216 217 225 234 240 253
337 324 313 292 251 214 195 194 198 199 194 194 194 192 192 189 187 189 188 185 181 178 178 181 181 180 180 182 185 191 188 193 197 198 207 214 217 218 220 222 231 235 241
342 337 330 321 303 251 213 197 195 199 198 192 191 193 191 188 190 192 189 186 185 184 183 183 183 186 187 189 192 195 194 200 205 206 210 218 217 225 230 228 236 241 241
346 350 350 338 305 273 245 229 209 202 197 192 193 193 193 192 194 194 189 187 187 185 185 186 187 189 190 193 197 198 200 206 212 214 218 222 222 229 231 235 241 246 247
339 338 335 331 312 288 262 241 232 211 197 194 196 199 200 197 195 191 187 187 188 187 188 190 192 193 193 195 198 200 206 211 216 221 225 228 227 233 235 238 241 246 248
330 324 319 320 313 295 284 264 244 224 204 199 202 207 206 198 192 189 186 187 189 193 192 192 194 195 197 199 198 201 208 214 219 222 227 230 230 237 239 242 244 245 248
316 316 317 312 305 291 274 259 245 229 214 209 209 205 201 197 194 193 189 188 191 193 194 197 197 199 203 197 203 207 211 217 223 226 229 230 228 232 238 244 249 250 249
315 311 309 305 300 292 274 254 243 224 214 213 210 204 201 201 200 194 193 193 194 196 199 202 203 208 208 203 208 212 220 223 227 229 231 232 231 233 241 244 248 252 253
319 313 309 307 302 294 284 270 244 222 216 216 214 207 203 204 200 199 202 200 197 200 204 206 209 215 216 210 215 215 224 231 232 232 234 237 237 232 239 247 252 255 256
315 313 308 304 299 290 279 254 236 228 224 223 221 214 205 202 201 204 206 204 202 205 208 211 214 220 221 213 218 218 226 232 236 236 236 236 240 236 236 247 254 259 263
323 322 318 313 305 302 285 249 243 240 242 242 234 222 214 209 209 211 210 209 207 211 211 218 222 225 229 219 219 219 226 233 237 237 236 234 238 241 237 246 254 260 266
320 320 317 311 306 303 282 263 259 255 258 253 235 221 217 217 215 215 214 210 208 213 221 227 231 233 235 228 223 221 224 230 236 239 240 237 232 242 244 250 256 261 272
320 319 315 311 309 297 275 269 270 273 263 241 227 222 218 212 212 214 217 213 210 218 228 234 239 240 237 233 228 225 228 233 237 242 244 242 236 247 252 255 260 267 271
316 314 309 308 306 294 276 269 279 282 258 239 233 225 216 218 216 215 216 215 215 221 229 234 241 244 239 234 232 234 234 234 238 245 245 249 249 254 256 255 261 263 261
312 311 306 303 303 299 288 280 281 265 240 230 230 226 218 220 223 223 218 218 219 223 227 233 241 245 241 235 227 227 230 229 237 244 243 246 250 250 255 258 256 252 253
305 302 296 295 297 299 294 293 281 253 236 231 226 224 222 220 225 231 232 232 235 236 236 239 240 243 246 240 230 231 233 232 238 246 251 252 251 249 251 254 255 254 254
300 298 297 297 299 299 298 296 282 250 232 228 226 224 223 225 229 239 262 254 249 254 252 253 253 252 253 254 245 245 249 249 242 245 247 251 254 255 258 261 261 260 258
Height
1492 1492 1492 1492 1492 1493 1494 1495 1495 1497 1498 1500 1502 1504 1506 1508 1510 1512 1514 1516 1517 1519 1521 1523 1524 1526 1527 1528 1529 1530 1531 1532 1533 1535 1536 1536 1536 1537 1537 1537 1538 1538 1538
1489 1489 1489 1490 1490 1490 1491 1492 1493 1495 1496 1498 1500 1502 1504 1506 1508 1510 1512 1514 1516 1517 1519 1520 1522 1524 1525 1526 1527 1528 1529 1530 1531 1533 1534 1535 1537 1535 1535 1536 1536 1536 1536
1487 1487 1487 1487 1488 1488 1489 1490 1491 1493 1494 1496 1498 1500 1502 1504 1506 1508 1510 1512 1514 1515 1517 1517 1519 1521 1523 1524 1525 1527 1527 1528 1529 1531 1533 1534 1534 1534 1534 1534 1534 1534 1534
1485 1485 1485 1485 1486 1487 1488 1488 1489 1491 1492 1493 1495 1497 1499 1501 1503 1505 1508 1510 1511 1512 1514 1515 1517 1518 1519 1521 1523 1524 1525 1526 1527 1528 1529 1531 1531 1532 1533 1533 1532 1532 1532
1482 1482 1482 1483 1483 1484 1485 1485 1487 1488 1489 1491 1493 1495 1498 1499 1501 1503 1505 1507 1508 1510 1511 1513 1514 1516 1517 1518 1520 1521 1522 1523 1525 1526 1527 1528 1528 1529 1530 1530 1530 1529 1529
1479 1479 1480 1480 1481 1481 1481 1483 1484 1485 1487 1489 1490 1493 1495 1497 1499 1500 1502 1504 1505 1507 1508 1510 1512 1513 1514 1515 1517 1518 1519 1521 1522 1523 1525 1525 1526 1526 1526 1527 1526 1526 1526
1477 1477 1477 1477 1477 1478 1479 1480 1481 1483 1484 1486 1488 1490 1492 1495 1496 1498 1500 1502 1503 1504 1506 1507 1509 1511 1512 1513 1514 1515 1517 1518 1519 1520 1521 1522 1523 1523 1523 1523 1523 1523 1522
1475 1475 1475 1475 1475 1475 1476 1477 1479 1480 1482 1484 1486 1488 1490 1492 1494 1496 1498 1499 1501 1502 1504 1505 1507 1508 1509 1510 1511 1512 1513 1515 1516 1517 1517 1518 1519 1519 1519 1520 1520 1520 1519
1474 1473 1473 1473 1473 1473 1474 1475 1477 1478 1480 1481 1483 1486 1488 1489 1491 1493 1495 1497 1498 1499 1501 1502 1504 1505 1506 1507 1508 1509 1510 1511 1512 1513 1514 1514 1515 1515 1516 1516 1516 1517 1516
1472 1472 1471 1471 1472 1472 1472 1474 1475 1476 1478 1480 1481 1483 1485 1487 1489 1491 1492 1494 1495 1497 1498 1500 1501 1502 1503 1505 1505 1506 1507 1508 1509 1510 1510 1511 1511 1511 1512 1512 1512 1512 1512
1472 1471 1470 1470 1470 1470 1471 1472 1473 1474 1476 1477 1479 1480 1482 1484 1486 1488 1489 1491 1492 1494 1495 1497 1498 1499 1500 1501 1502 1503 1504 1505 1505 1506 1507 1507 1508 1508 1508 1508 1507 1508 1507
1472 1470 1469 1468 1468 1469 1469 1470 1470 1472 1473 1474 1476 1477 1479 1481 1483 1485 1487 1488 1489 1491 1492 1494 1494 1496 1497 1498 1499 1500 1500 1501 1502 1503 1503 1504 1504 1504 1504 1503 1503 1503 1503
1472 1470 1469 1468 1468 1467 1468 1468 1468 1469 1470 1472 1473 1474 1476 1478 1480 1482 1483 1485 1486 1487 1489 1490 1491 1492 1493 1494 1495 1496 1497 1498 1498 1499 1499 1499 1499 1499 1499 1499 1499 1499 1498
1471 1470 1468 1467 1466 1466 1466 1466 1467 1467 1468 1469 1470 1471 1473 1475 1476 1478 1480 1481 1483 1484 1485 1486 1487 1488 1489 1490 1491 1492 1493 1494 1494 1494 1495 1495 1495 1495 1495 1495 1494 1494 1494
1470 1468 1467 1466 1465 1465 1465 1465 1465 1465 1465 1466 1467 1469 1470 1471 1473 1475 1476 1477 1479 1480 1481 1482 1483 1484 1485 1486 1487 1488 1489 1489 1490 1490 1490 1490 1490 1490 1490 1490 1489 1489 1489
1468 1467 1466 1465 1464 1463 1463 1463 1463 1463 1463 1464 1465 1466 1467 1468 1469 1471 1472 1474 1475 1476 1477 1478 1479 1480 1481 1482 1483 1484 1484 1485 1485 1485 1485 1485 1485 1485 1485 1485 1484 1484 1483
1467 1465 1464 1463 1462 1461 1461 1461 1461 1461 1461 1462 1462 1463 1464 1465 1466 1467 1469 1470 1471 1472 1473 1474 1474 1475 1476 1477 1478 1479 1479 1480 1480 1480 1480 1480 1480 1480 1480 1479 1479 1478 1477
1466 1464 1462 1461 1460 1459 1459 1459 1459 1459 1459 1459 1460 1460 1461 1462 1463 1464 1465 1466 1467 1468 1469 1469 1470 1471 1472 1473 1474 1474 1474 1475 1475 1475 1475 1475 1474 1474 1474 1473 1472 1472 1471
1464 1462 1460 1459 1458 1457 1457 1456 1456 1456 1456 1456 1457 1457 1458 1458 1459 1460 1461 1462 1463 1463 1464 1465 1466 1466 1467 1468 1469 1469 1469 1469 1469 1469 1469 1469 1469 1468 1468 1467 1466 1465 1465
1462 1460 1458 1457 1456 1455 1454 1453 1453 1453 1453 1453 1454 1454 1454 1455 1455 1456 1457 1457 1458 1459 1460 1460 1461 1461 1462 1463 1464 1464 1464 1464 1464 1464 1464 1463 1463 1463 1462 1461 1460 1459 1458
1460 1458 1456 1455 1454 1452 1452 1451 1451 1450 1451 1451 1451 1451 1451 1451 1452 1452 1453 1453 1454 1454 1455 1455 1456 1456 1457 1457 1458 1458 1458 1458 1458 1458 1458 1457 1457 1456 1456 1455 1454 1453 1452
1458 1456 1454 1453 1451 1450 1449 1448 1448 1448 1448 1447 1447 1447 1447 1448 1448 1448 1448 1449 1449 1450 1450 1451 1451 1451 1451 1452 1452 1453 1453 1453 1452 1452 1452 1452 1451 1451 1450 1449 1448 1447 1446
1455 1454 1452 1450 1449 1448 1447 1446 1445 1445 1444 1444 1444 1444 1444 1444 1444 1444 1444 1445 1445 1445 1445 1446 1446 1446 1446 1446 1447 1447 1447 1447 1447 1446 1446 1445 1445 1444 1443 1443 1442 1441 1440
1453 1451 1449 1448 1446 1445 1444 1443 1442 1442 1441 1440 1440 1440 1440 1440 1440 1440 1440 1441 1441 1441 1441 1441 1441 1441 1441 1441 1441 1441 1441 1441 1441 1440 1440 1439 1438 1438 1437 1436 1435 1434 1433
1450 1448 1447 1445 1443 1442 1441 1440 1439 1438 1437 1437 1436 1436 1436 1436 1436 1436 1437 1437 1437 1437 1437 1437 1437 1436 1436 1436 1436 1436 1435 1435 1435 1434 1433 1433 1432 1432 1431 1430 1429 1428 1427
1447 1445 1444 1442 1440 1439 1438 1437 1436 1435 1434 1433 1433 1433 1432 1432 1432 1432 1432 1432 1432 1432 1432 1432 1432 1431 1431 1431 1431 1431 1430 1430 1430 1429 1428 1427 1426 1426 1425 1424 1423 1422 1421